QPF
0.00 0.00 0.01 0.01 0.00 0.01 0.01 0.01 0.00 0.00 0.00 0.00 0.00 0.00 0.00 0.00 0.00 0.00 0.00 0.00 0.00 0.00 0.00 0.00 0.00 0.01 0.01 0.01 0.01 0.02 0.03 0.04 0.05 0.06 0.07 0.07 0.08 0.07 0.06 0.06 0.05 0.05 0.03 0.03
0.03 0.01 0.00 0.00 0.00 0.00 0.00 0.00 0.00 0.00 0.00 0.00 0.00 0.00 0.00 0.00 0.00 0.00 0.00 0.00 0.00 0.00 0.00 0.00 0.00 0.00 0.01 0.02 0.01 0.01 0.03 0.04 0.04 0.06 0.06 0.05 0.07 0.07 0.06 0.06 0.06 0.03 0.03 0.03
0.03 0.01 0.00 0.00 0.00 0.00 0.00 0.00 0.00 0.00 0.00 0.00 0.01 0.03 0.01 0.00 0.00 0.00 0.00 0.00 0.00 0.00 0.00 0.00 0.00 0.00 0.01 0.01 0.01 0.01 0.02 0.04 0.04 0.04 0.04 0.05 0.06 0.06 0.06 0.07 0.06 0.05 0.06 0.06
0.01 0.00 0.00 0.00 0.00 0.00 0.00 0.00 0.00 0.00 0.01 0.01 0.03 0.04 0.01 0.00 0.00 0.00 0.00 0.00 0.00 0.00 0.00 0.00 0.00 0.00 0.00 0.01 0.01 0.01 0.02 0.05 0.05 0.04 0.04 0.05 0.06 0.05 0.05 0.05 0.05 0.05 0.07 0.06
0.01 0.00 0.00 0.00 0.00 0.00 0.00 0.00 0.00 0.00 0.01 0.02 0.02 0.02 0.02 0.00 0.00 0.00 0.00 0.00 0.01 0.00 0.00 0.00 0.00 0.00 0.00 0.01 0.00 0.01 0.02 0.05 0.07 0.08 0.06 0.05 0.05 0.04 0.04 0.04 0.04 0.04 0.05 0.05
0.00 0.00 0.00 0.00 0.00 0.00 0.00 0.00 0.01 0.02 0.02 0.01 0.00 0.01 0.02 0.01 0.00 0.00 0.00 0.01 0.01 0.00 0.00 0.00 0.00 0.00 0.00 0.01 0.00 0.00 0.01 0.02 0.05 0.09 0.08 0.06 0.05 0.04 0.04 0.05 0.04 0.05 0.06 0.06
0.00 0.00 0.00 0.00 0.00 0.00 0.00 0.01 0.03 0.03 0.03 0.01 0.00 0.00 0.00 0.00 0.00 0.00 0.00 0.00 0.00 0.00 0.00 0.00 0.00 0.00 0.00 0.00 0.01 0.01 0.01 0.01 0.02 0.06 0.08 0.08 0.06 0.05 0.05 0.05 0.04 0.04 0.06 0.06
0.00 0.00 0.00 0.00 0.00 0.00 0.00 0.00 0.03 0.04 0.04 0.02 0.01 0.01 0.00 0.00 0.00 0.00 0.00 0.00 0.00 0.00 0.00 0.00 0.00 0.00 0.00 0.00 0.00 0.01 0.01 0.01 0.01 0.03 0.05 0.05 0.07 0.08 0.06 0.05 0.04 0.03 0.04 0.06
0.00 0.01 0.00 0.00 0.00 0.00 0.00 0.00 0.01 0.02 0.01 0.01 0.01 0.00 0.00 0.00 0.00 0.00 0.00 0.00 0.00 0.00 0.00 0.00 0.00 0.00 0.00 0.00 0.00 0.01 0.01 0.01 0.01 0.01 0.02 0.02 0.03 0.05 0.05 0.05 0.04 0.02 0.02 0.02
0.00 0.02 0.00 0.00 0.00 0.00 0.00 0.00 0.00 0.01 0.01 0.01 0.01 0.02 0.01 0.00 0.00 0.00 0.00 0.00 0.00 0.00 0.00 0.00 0.00 0.00 0.00 0.00 0.00 0.00 0.01 0.01 0.01 0.01 0.01 0.01 0.02 0.01 0.02 0.04 0.03 0.01 0.01 0.01
0.00 0.01 0.00 0.00 0.00 0.00 0.00 0.00 0.00 0.00 0.01 0.02 0.02 0.03 0.01 0.00 0.00 0.00 0.00 0.00 0.00 0.00 0.00 0.00 0.00 0.00 0.00 0.01 0.01 0.00 0.01 0.01 0.01 0.01 0.01 0.02 0.01 0.01 0.01 0.01 0.01 0.01 0.01 0.01
0.00 0.00 0.00 0.00 0.00 0.00 0.00 0.00 0.00 0.00 0.00 0.01 0.02 0.02 0.01 0.00 0.00 0.00 0.00 0.00 0.00 0.00 0.00 0.00 0.00 0.00 0.01 0.01 0.00 0.01 0.01 0.01 0.01 0.00 0.00 0.00 0.01 0.01 0.01 0.01 0.00 0.00 0.00 0.01
0.00 0.00 0.02 0.02 0.01 0.00 0.00 0.00 0.00 0.00 0.00 0.00 0.02 0.04 0.02 0.00 0.00 0.00 0.00 0.00 0.00 0.00 0.00 0.00 0.00 0.00 0.00 0.00 0.00 0.01 0.01 0.01 0.00 0.00 0.00 0.00 0.00 0.00 0.00 0.01 0.01 0.01 0.01 0.01
0.00 0.00 0.02 0.04 0.02 0.00 0.00 0.00 0.00 0.00 0.00 0.00 0.02 0.04 0.01 0.00 0.00 0.00 0.00 0.00 0.00 0.00 0.00 0.00 0.00 0.00 0.00 0.00 0.01 0.01 0.01 0.00 0.00 0.00 0.00 0.00 0.01 0.01 0.01 0.02 0.02 0.03 0.02 0.02
0.00 0.00 0.00 0.00 0.01 0.00 0.01 0.01 0.00 0.00 0.00 0.00 0.02 0.01 0.00 0.00 0.00 0.00 0.00 0.00 0.01 0.00 0.00 0.00 0.00 0.01 0.01 0.01 0.01 0.01 0.00 0.00 0.00 0.01 0.01 0.01 0.01 0.02 0.03 0.05 0.05 0.03 0.02 0.02
0.00 0.00 0.00 0.00 0.00 0.00 0.00 0.01 0.01 0.00 0.00 0.00 0.01 0.00 0.00 0.00 0.00 0.00 0.00 0.01 0.02 0.00 0.00 0.00 0.01 0.02 0.02 0.01 0.01 0.01 0.01 0.01 0.01 0.01 0.01 0.01 0.01 0.01 0.01 0.02 0.02 0.02 0.02 0.02
0.00 0.00 0.00 0.00 0.00 0.00 0.00 0.00 0.00 0.00 0.00 0.00 0.00 0.00 0.00 0.00 0.00 0.00 0.00 0.00 0.00 0.00 0.01 0.02 0.05 0.04 0.03 0.02 0.01 0.02 0.01 0.01 0.01 0.01 0.01 0.01 0.01 0.01 0.01 0.01 0.02 0.01 0.02 0.02
0.00 0.00 0.00 0.00 0.00 0.01 0.00 0.00 0.00 0.00 0.00 0.00 0.00 0.00 0.00 0.00 0.00 0.00 0.00 0.00 0.00 0.01 0.01 0.02 0.04 0.07 0.06 0.07 0.04 0.01 0.00 0.00 0.01 0.01 0.01 0.01 0.01 0.01 0.01 0.01 0.01 0.01 0.01 0.01
0.00 0.00 0.00 0.00 0.00 0.01 0.01 0.00 0.00 0.00 0.00 0.00 0.00 0.00 0.00 0.00 0.00 0.00 0.00 0.00 0.00 0.01 0.01 0.01 0.01 0.01 0.03 0.04 0.02 0.01 0.01 0.01 0.01 0.01 0.01 0.01 0.01 0.01 0.01 0.01 0.01 0.01 0.02 0.02
0.00 0.00 0.00 0.00 0.00 0.00 0.00 0.01 0.00 0.00 0.01 0.00 0.00 0.00 0.00 0.00 0.01 0.01 0.00 0.00 0.00 0.01 0.01 0.01 0.01 0.01 0.01 0.02 0.02 0.02 0.01 0.02 0.02 0.01 0.01 0.01 0.01 0.02 0.01 0.01 0.02 0.02 0.02 0.02
0.00 0.00 0.00 0.00 0.00 0.00 0.00 0.00 0.00 0.01 0.02 0.00 0.00 0.00 0.00 0.00 0.01 0.00 0.00 0.00 0.01 0.01 0.01 0.01 0.02 0.02 0.02 0.02 0.02 0.03 0.02 0.03 0.02 0.01 0.01 0.01 0.02 0.02 0.02 0.02 0.02 0.02 0.02 0.03
0.00 0.00 0.00 0.00 0.00 0.01 0.00 0.00 0.01 0.01 0.00 0.00 0.00 0.00 0.00 0.00 0.00 0.00 0.00 0.00 0.01 0.01 0.01 0.02 0.02 0.02 0.02 0.02 0.03 0.02 0.03 0.03 0.03 0.02 0.02 0.02 0.01 0.01 0.01 0.02 0.02 0.02 0.02 0.03
0.01 0.01 0.01 0.00 0.01 0.00 0.00 0.00 0.01 0.00 0.00 0.00 0.00 0.00 0.00 0.00 0.00 0.00 0.00 0.01 0.01 0.02 0.02 0.02 0.02 0.03 0.02 0.03 0.03 0.04 0.03 0.03 0.03 0.03 0.04 0.04 0.03 0.03 0.03 0.03 0.03 0.02 0.03 0.02
0.00 0.00 0.00 0.00 0.00 0.00 0.00 0.00 0.01 0.01 0.01 0.00 0.00 0.00 0.00 0.00 0.00 0.00 0.00 0.01 0.01 0.02 0.02 0.02 0.02 0.03 0.03 0.03 0.03 0.03 0.03 0.03 0.04 0.06 0.06 0.06 0.06 0.05 0.05 0.05 0.04 0.03 0.03 0.02
0.01 0.01 0.01 0.00 0.00 0.00 0.00 0.00 0.01 0.01 0.01 0.01 0.01 0.00 0.00 0.00 0.00 0.00 0.00 0.00 0.01 0.02 0.02 0.02 0.03 0.03 0.03 0.03 0.02 0.02 0.03 0.03 0.04 0.05 0.05 0.06 0.06 0.05 0.06 0.06 0.06 0.05 0.03 0.03
0.00 0.00 0.01 0.01 0.01 0.01 0.01 0.01 0.01 0.00 0.01 0.00 0.00 0.00 0.00 0.00 0.00 0.00 0.00 0.00 0.01 0.02 0.02 0.03 0.04 0.05 0.05 0.04 0.03 0.03 0.03 0.04 0.05 0.06 0.07 0.06 0.05 0.05 0.05 0.04 0.04 0.04 0.05 0.05
MSLP
1005.68 1005.82 1005.94 1006.09 1006.33 1006.71 1007.23 1007.85 1008.51 1009.11 1009.60 1009.92 1010.06 1010.06 1009.97 1009.85 1009.75 1009.69 1009.64 1009.57 1009.42 1009.13 1008.66 1008.04 1007.32 1006.58 1005.93 1005.48 1005.28 1005.36 1005.71 1006.27 1006.96 1007.70 1008.42 1009.08 1009.67 1010.22 1010.75 1011.28 1011.85 1012.45 1013.06 1013.66
1005.89 1005.87 1005.84 1005.87 1006.07 1006.46 1007.06 1007.82 1008.65 1009.44 1010.10 1010.55 1010.76 1010.77 1010.61 1010.39 1010.17 1010.00 1009.90 1009.85 1009.80 1009.70 1009.48 1009.15 1008.71 1008.22 1007.75 1007.38 1007.18 1007.17 1007.39 1007.77 1008.28 1008.86 1009.44 1010.00 1010.53 1011.01 1011.48 1011.95 1012.44 1012.95 1013.48 1014.00
1005.93 1005.77 1005.62 1005.60 1005.80 1006.27 1007.00 1007.94 1008.98 1009.97 1010.80 1011.36 1011.63 1011.61 1011.37 1011.01 1010.64 1010.33 1010.13 1010.04 1010.03 1010.05 1010.02 1009.90 1009.68 1009.39 1009.06 1008.76 1008.56 1008.51 1008.61 1008.88 1009.27 1009.74 1010.25 1010.75 1011.24 1011.69 1012.12 1012.55 1012.97 1013.41 1013.85 1014.30
1005.80 1005.54 1005.34 1005.33 1005.59 1006.19 1007.10 1008.24 1009.49 1010.67 1011.65 1012.30 1012.59 1012.52 1012.17 1011.64 1011.09 1010.61 1010.28 1010.12 1010.11 1010.18 1010.27 1010.31 1010.26 1010.12 1009.91 1009.68 1009.49 1009.40 1009.45 1009.65 1009.97 1010.39 1010.86 1011.36 1011.83 1012.28 1012.69 1013.08 1013.46 1013.83 1014.20 1014.58
1005.52 1005.22 1005.03 1005.08 1005.47 1006.22 1007.32 1008.67 1010.10 1011.44 1012.53 1013.23 1013.50 1013.36 1012.88 1012.20 1011.46 1010.82 1010.35 1010.11 1010.06 1010.17 1010.33 1010.49 1010.56 1010.53 1010.41 1010.25 1010.08 1009.99 1010.02 1010.18 1010.48 1010.88 1011.36 1011.86 1012.34 1012.79 1013.20 1013.56 1013.90 1014.22 1014.53 1014.86
1005.16 1004.87 1004.74 1004.90 1005.42 1006.34 1007.62 1009.13 1010.70 1012.15 1013.29 1014.01 1014.24 1014.00 1013.40 1012.57 1011.69 1010.91 1010.34 1010.02 1009.94 1010.06 1010.29 1010.53 1010.70 1010.77 1010.73 1010.62 1010.50 1010.42 1010.44 1010.60 1010.89 1011.30 1011.79 1012.30 1012.80 1013.26 1013.65 1013.99 1014.29 1014.56 1014.83 1015.11
1004.78 1004.54 1004.50 1004.77 1005.43 1006.48 1007.88 1009.50 1011.16 1012.64 1013.80 1014.48 1014.66 1014.35 1013.65 1012.72 1011.75 1010.88 1010.24 1009.89 1009.81 1009.96 1010.24 1010.55 1010.81 1010.96 1011.00 1010.95 1010.86 1010.81 1010.84 1011.00 1011.29 1011.71 1012.20 1012.71 1013.22 1013.67 1014.05 1014.36 1014.62 1014.85 1015.08 1015.33
1004.47 1004.29 1004.33 1004.70 1005.45 1006.59 1008.05 1009.70 1011.35 1012.82 1013.93 1014.57 1014.68 1014.32 1013.58 1012.61 1011.61 1010.73 1010.10 1009.76 1009.72 1009.92 1010.26 1010.64 1010.97 1011.20 1011.30 1011.30 1011.26 1011.23 1011.27 1011.43 1011.72 1012.12 1012.60 1013.10 1013.59 1014.01 1014.36 1014.64 1014.86 1015.06 1015.26 1015.48
1004.25 1004.13 1004.24 1004.66 1005.45 1006.61 1008.05 1009.65 1011.24 1012.62 1013.66 1014.23 1014.31 1013.93 1013.20 1012.27 1011.32 1010.51 1009.94 1009.67 1009.70 1009.96 1010.37 1010.82 1011.22 1011.51 1011.67 1011.72 1011.71 1011.70 1011.75 1011.91 1012.18 1012.55 1013.00 1013.46 1013.90 1014.29 1014.59 1014.83 1015.01 1015.18 1015.35 1015.56
1004.17 1004.09 1004.23 1004.66 1005.43 1006.52 1007.87 1009.36 1010.81 1012.08 1013.01 1013.52 1013.58 1013.23 1012.58 1011.75 1010.92 1010.23 1009.79 1009.62 1009.74 1010.08 1010.56 1011.07 1011.52 1011.86 1012.07 1012.16 1012.19 1012.20 1012.25 1012.39 1012.64 1012.97 1013.36 1013.77 1014.15 1014.48 1014.73 1014.92 1015.07 1015.20 1015.36 1015.55
1004.23 1004.17 1004.30 1004.69 1005.38 1006.36 1007.56 1008.87 1010.15 1011.26 1012.09 1012.55 1012.61 1012.33 1011.79 1011.12 1010.47 1009.94 1009.65 1009.61 1009.83 1010.24 1010.77 1011.32 1011.81 1012.19 1012.44 1012.57 1012.62 1012.65 1012.71 1012.84 1013.05 1013.33 1013.66 1014.00 1014.32 1014.58 1014.78 1014.93 1015.04 1015.15 1015.29 1015.48
1004.40 1004.34 1004.45 1004.78 1005.36 1006.18 1007.19 1008.30 1009.38 1010.33 1011.04 1011.45 1011.54 1011.35 1010.96 1010.46 1009.99 1009.65 1009.51 1009.60 1009.90 1010.37 1010.93 1011.51 1012.02 1012.42 1012.69 1012.86 1012.94 1013.00 1013.07 1013.19 1013.37 1013.60 1013.88 1014.16 1014.41 1014.62 1014.78 1014.89 1014.98 1015.07 1015.19 1015.37
1004.66 1004.61 1004.68 1004.94 1005.40 1006.06 1006.87 1007.76 1008.64 1009.42 1010.02 1010.38 1010.50 1010.40 1010.14 1009.82 1009.53 1009.35 1009.35 1009.53 1009.90 1010.40 1010.97 1011.54 1012.05 1012.47 1012.77 1012.97 1013.09 1013.18 1013.27 1013.40 1013.57 1013.77 1014.01 1014.24 1014.45 1014.61 1014.74 1014.82 1014.89 1014.98 1015.09 1015.25
1005.01 1004.97 1005.03 1005.22 1005.57 1006.07 1006.69 1007.38 1008.06 1008.66 1009.14 1009.44 1009.57 1009.54 1009.40 1009.22 1009.08 1009.03 1009.13 1009.38 1009.77 1010.27 1010.83 1011.39 1011.89 1012.31 1012.63 1012.87 1013.04 1013.17 1013.30 1013.45 1013.63 1013.83 1014.04 1014.24 1014.43 1014.57 1014.68 1014.76 1014.82 1014.89 1014.99 1015.13
1005.43 1005.43 1005.50 1005.66 1005.92 1006.29 1006.73 1007.22 1007.70 1008.14 1008.48 1008.70 1008.81 1008.81 1008.75 1008.67 1008.63 1008.67 1008.83 1009.12 1009.51 1010.00 1010.52 1011.05 1011.53 1011.95 1012.30 1012.58 1012.80 1012.99 1013.17 1013.35 1013.55 1013.77 1013.98 1014.18 1014.36 1014.50 1014.61 1014.69 1014.76 1014.82 1014.91 1015.01
1005.92 1005.99 1006.10 1006.26 1006.47 1006.72 1007.01 1007.32 1007.61 1007.87 1008.06 1008.18 1008.24 1008.23 1008.20 1008.17 1008.19 1008.29 1008.48 1008.77 1009.15 1009.60 1010.08 1010.57 1011.04 1011.47 1011.83 1012.15 1012.43 1012.67 1012.91 1013.14 1013.38 1013.61 1013.84 1014.06 1014.25 1014.41 1014.53 1014.62 1014.70 1014.76 1014.82 1014.89
1006.49 1006.65 1006.83 1007.00 1007.17 1007.34 1007.50 1007.64 1007.75 1007.83 1007.87 1007.86 1007.83 1007.79 1007.75 1007.74 1007.78 1007.90 1008.10 1008.38 1008.74 1009.16 1009.61 1010.07 1010.52 1010.94 1011.33 1011.68 1012.00 1012.30 1012.59 1012.87 1013.14 1013.41 1013.66 1013.90 1014.11 1014.29 1014.43 1014.55 1014.63 1014.69 1014.73 1014.76
1007.09 1007.37 1007.62 1007.83 1007.98 1008.08 1008.12 1008.11 1008.05 1007.95 1007.83 1007.70 1007.57 1007.46 1007.40 1007.38 1007.44 1007.57 1007.77 1008.06 1008.40 1008.79 1009.22 1009.65 1010.09 1010.51 1010.91 1011.28 1011.63 1011.97 1012.29 1012.60 1012.90 1013.19 1013.47 1013.73 1013.96 1014.16 1014.33 1014.46 1014.55 1014.61 1014.62 1014.61
1007.71 1008.08 1008.40 1008.64 1008.78 1008.82 1008.76 1008.61 1008.39 1008.14 1007.88 1007.62 1007.41 1007.24 1007.15 1007.13 1007.20 1007.35 1007.58 1007.87 1008.22 1008.60 1009.01 1009.44 1009.86 1010.27 1010.67 1011.05 1011.41 1011.76 1012.09 1012.42 1012.73 1013.04 1013.33 1013.60 1013.84 1014.06 1014.23 1014.37 1014.46 1014.51 1014.50 1014.45
1008.26 1008.71 1009.07 1009.33 1009.45 1009.43 1009.28 1009.02 1008.68 1008.31 1007.93 1007.59 1007.31 1007.11 1007.01 1007.01 1007.11 1007.30 1007.57 1007.89 1008.26 1008.65 1009.07 1009.48 1009.89 1010.29 1010.67 1011.04 1011.39 1011.73 1012.06 1012.38 1012.69 1012.99 1013.27 1013.54 1013.78 1013.99 1014.17 1014.30 1014.38 1014.41 1014.38 1014.30
1008.69 1009.17 1009.55 1009.80 1009.89 1009.82 1009.60 1009.26 1008.83 1008.38 1007.94 1007.55 1007.25 1007.06 1006.98 1007.03 1007.19 1007.44 1007.76 1008.13 1008.54 1008.96 1009.38 1009.79 1010.19 1010.57 1010.93 1011.27 1011.60 1011.92 1012.22 1012.52 1012.81 1013.08 1013.34 1013.59 1013.81 1014.00 1014.15 1014.26 1014.31 1014.32 1014.27 1014.16
1008.94 1009.41 1009.78 1009.99 1010.04 1009.93 1009.66 1009.27 1008.81 1008.33 1007.88 1007.49 1007.22 1007.07 1007.06 1007.18 1007.41 1007.74 1008.13 1008.57 1009.02 1009.46 1009.90 1010.31 1010.69 1011.05 1011.38 1011.70 1011.99 1012.28 1012.56 1012.82 1013.08 1013.32 1013.55 1013.75 1013.93 1014.08 1014.19 1014.25 1014.27 1014.24 1014.15 1014.02
1009.01 1009.43 1009.74 1009.91 1009.92 1009.77 1009.48 1009.09 1008.63 1008.18 1007.76 1007.43 1007.22 1007.15 1007.22 1007.43 1007.75 1008.15 1008.61 1009.10 1009.59 1010.07 1010.51 1010.92 1011.29 1011.63 1011.94 1012.22 1012.50 1012.75 1013.00 1013.23 1013.46 1013.66 1013.85 1014.01 1014.13 1014.22 1014.27 1014.27 1014.22 1014.14 1014.01 1013.86
1008.91 1009.25 1009.49 1009.60 1009.57 1009.41 1009.13 1008.76 1008.36 1007.97 1007.63 1007.38 1007.26 1007.28 1007.44 1007.73 1008.12 1008.59 1009.10 1009.63 1010.15 1010.64 1011.09 1011.49 1011.85 1012.18 1012.47 1012.74 1012.99 1013.23 1013.46 1013.68 1013.87 1014.04 1014.18 1014.29 1014.35 1014.36 1014.33 1014.25 1014.14 1013.98 1013.81 1013.61
1008.71 1008.95 1009.11 1009.17 1009.12 1008.96 1008.72 1008.41 1008.09 1007.78 1007.54 1007.39 1007.36 1007.46 1007.69 1008.04 1008.48 1008.98 1009.52 1010.06 1010.58 1011.07 1011.51 1011.90 1012.26 1012.57 1012.86 1013.12 1013.37 1013.61 1013.83 1014.04 1014.21 1014.36 1014.45 1014.50 1014.50 1014.43 1014.31 1014.15 1013.94 1013.72 1013.47 1013.24
1008.47 1008.63 1008.72 1008.75 1008.69 1008.57 1008.38 1008.15 1007.92 1007.71 1007.57 1007.51 1007.55 1007.70 1007.97 1008.33 1008.78 1009.27 1009.79 1010.30 1010.80 1011.27 1011.69 1012.07 1012.41 1012.72 1013.01 1013.29 1013.54 1013.79 1014.02 1014.22 1014.38 1014.50 1014.57 1014.56 1014.49 1014.35 1014.15 1013.89 1013.60 1013.29 1012.98 1012.69
Thickness
5862 5848 5838 5846 5856 5855 5855 5853 5848 5858 5875 5865 5855 5850 5853 5860 5856 5851 5846 5842 5838 5837 5841 5840 5837 5834 5830 5826 5822 5819 5816 5815 5812 5809 5806 5803 5801 5802 5801 5800 5797 5795 5793 5791
5845 5840 5857 5867 5866 5861 5858 5850 5850 5862 5875 5865 5853 5851 5859 5862 5860 5858 5851 5846 5844 5841 5841 5839 5837 5835 5831 5826 5824 5821 5818 5816 5814 5811 5809 5807 5805 5804 5803 5801 5798 5795 5793 5791
5836 5851 5869 5863 5858 5853 5854 5851 5851 5851 5864 5865 5852 5841 5850 5860 5867 5864 5862 5857 5853 5847 5843 5841 5838 5836 5834 5829 5826 5824 5821 5818 5816 5814 5812 5809 5806 5803 5801 5798 5796 5794 5792 5790
5849 5864 5863 5856 5855 5855 5845 5864 5862 5857 5845 5838 5843 5819 5839 5853 5855 5857 5857 5858 5857 5855 5851 5846 5842 5839 5837 5835 5832 5828 5824 5820 5817 5815 5812 5807 5802 5798 5798 5797 5796 5794 5792 5790
5847 5861 5858 5852 5859 5864 5857 5870 5864 5855 5845 5835 5845 5832 5831 5852 5844 5850 5856 5860 5859 5860 5857 5852 5848 5844 5842 5840 5836 5831 5826 5822 5819 5816 5813 5808 5804 5802 5801 5799 5796 5794 5792 5790
5857 5873 5872 5867 5874 5874 5872 5864 5857 5854 5843 5817 5836 5833 5827 5846 5849 5853 5860 5863 5863 5864 5862 5858 5855 5850 5845 5843 5839 5833 5826 5821 5819 5816 5814 5809 5805 5802 5799 5796 5794 5793 5791 5789
5842 5860 5875 5878 5861 5867 5864 5841 5818 5811 5807 5816 5846 5839 5838 5864 5872 5869 5865 5866 5868 5867 5863 5859 5854 5849 5846 5842 5839 5834 5827 5822 5820 5817 5814 5810 5807 5803 5799 5796 5794 5792 5790 5787
5825 5833 5863 5871 5862 5853 5855 5843 5812 5796 5801 5824 5842 5829 5848 5877 5881 5881 5876 5873 5871 5868 5865 5861 5857 5853 5849 5845 5841 5835 5828 5823 5821 5817 5814 5811 5808 5804 5802 5798 5796 5792 5790 5788
5829 5833 5868 5876 5878 5866 5847 5844 5851 5831 5822 5816 5827 5837 5857 5876 5873 5873 5871 5869 5866 5866 5865 5861 5859 5856 5851 5847 5843 5838 5831 5825 5822 5818 5814 5810 5808 5805 5802 5799 5796 5793 5790 5788
5842 5825 5852 5870 5873 5871 5863 5855 5842 5826 5803 5797 5814 5825 5835 5849 5857 5863 5864 5863 5864 5865 5864 5861 5860 5857 5854 5850 5846 5841 5835 5828 5823 5819 5815 5811 5807 5804 5801 5798 5794 5791 5789 5786
5848 5826 5836 5853 5847 5845 5852 5849 5844 5836 5828 5804 5798 5816 5858 5859 5862 5863 5864 5865 5863 5861 5860 5859 5859 5857 5853 5850 5846 5839 5834 5828 5823 5819 5815 5811 5808 5804 5801 5797 5794 5791 5788 5785
5845 5832 5820 5837 5860 5868 5858 5852 5846 5823 5816 5820 5807 5817 5868 5868 5871 5868 5865 5864 5864 5861 5861 5859 5857 5855 5851 5846 5842 5837 5832 5827 5823 5820 5815 5811 5807 5804 5800 5796 5793 5790 5787 5784
5833 5818 5799 5808 5830 5848 5845 5850 5850 5843 5830 5818 5805 5814 5859 5863 5864 5865 5863 5861 5859 5858 5857 5855 5852 5849 5845 5842 5838 5834 5830 5827 5823 5819 5814 5809 5805 5802 5799 5796 5793 5789 5786 5782
5829 5812 5799 5790 5807 5826 5828 5838 5844 5836 5819 5816 5819 5823 5838 5847 5848 5852 5856 5856 5855 5852 5850 5848 5844 5842 5840 5837 5833 5830 5827 5826 5821 5816 5811 5806 5803 5800 5797 5794 5791 5787 5783 5779
5822 5804 5807 5814 5826 5829 5828 5829 5835 5832 5830 5819 5824 5828 5834 5843 5845 5847 5850 5850 5847 5845 5842 5840 5837 5834 5832 5830 5827 5825 5823 5821 5817 5812 5807 5803 5801 5798 5794 5790 5786 5783 5780 5777
5811 5797 5799 5800 5816 5821 5818 5826 5827 5829 5833 5830 5830 5828 5842 5849 5849 5842 5841 5840 5836 5836 5835 5833 5831 5827 5823 5822 5820 5818 5816 5814 5811 5806 5802 5800 5797 5793 5789 5786 5782 5779 5775 5772
5796 5788 5780 5782 5803 5804 5796 5818 5825 5825 5832 5830 5818 5826 5838 5835 5834 5833 5834 5833 5830 5830 5829 5825 5822 5818 5817 5816 5814 5811 5810 5809 5805 5801 5798 5795 5791 5788 5785 5782 5777 5772 5769 5767
5783 5777 5774 5775 5777 5758 5798 5832 5831 5824 5826 5831 5829 5830 5831 5830 5833 5835 5835 5829 5826 5826 5824 5821 5818 5815 5814 5812 5808 5807 5805 5802 5798 5794 5792 5790 5786 5782 5779 5775 5771 5768 5765 5761
5786 5771 5764 5764 5761 5771 5796 5814 5818 5811 5805 5822 5820 5821 5824 5827 5823 5820 5826 5823 5820 5820 5819 5817 5816 5814 5811 5808 5805 5801 5798 5795 5791 5788 5785 5784 5781 5776 5772 5768 5765 5762 5758 5755
5779 5771 5758 5757 5750 5752 5780 5808 5819 5807 5785 5810 5814 5810 5810 5808 5793 5798 5812 5814 5813 5813 5812 5810 5810 5809 5804 5802 5799 5793 5790 5787 5784 5782 5780 5777 5774 5769 5765 5762 5759 5756 5753 5749
5755 5753 5748 5747 5747 5761 5789 5805 5804 5770 5771 5799 5803 5801 5799 5793 5792 5798 5804 5803 5803 5802 5802 5802 5800 5796 5794 5794 5791 5785 5782 5779 5779 5777 5773 5770 5767 5763 5760 5757 5754 5750 5746 5742
5746 5745 5743 5745 5740 5746 5784 5788 5774 5768 5787 5791 5791 5793 5791 5791 5793 5793 5791 5790 5790 5790 5790 5790 5786 5784 5783 5784 5781 5776 5773 5773 5772 5768 5764 5761 5759 5757 5756 5750 5747 5743 5738 5733
5749 5748 5749 5748 5750 5766 5778 5776 5779 5780 5777 5779 5782 5784 5784 5781 5780 5780 5779 5779 5779 5778 5778 5777 5775 5772 5772 5773 5771 5766 5765 5765 5762 5758 5755 5753 5751 5749 5746 5742 5737 5734 5731 5727
5745 5753 5747 5743 5751 5760 5766 5769 5772 5772 5769 5772 5774 5774 5773 5770 5769 5768 5767 5767 5767 5767 5766 5765 5763 5761 5760 5761 5760 5759 5758 5756 5752 5748 5746 5744 5742 5738 5737 5733 5730 5726 5722 5718
5729 5733 5731 5730 5739 5747 5752 5756 5759 5760 5763 5764 5765 5764 5763 5761 5759 5758 5756 5756 5755 5755 5755 5754 5751 5749 5749 5749 5748 5749 5748 5746 5741 5739 5737 5735 5732 5730 5726 5723 5720 5718 5714 5711
5723 5721 5715 5715 5728 5729 5733 5744 5749 5748 5749 5750 5752 5752 5754 5754 5750 5748 5746 5746 5745 5744 5744 5743 5741 5739 5739 5738 5737 5738 5737 5735 5731 5728 5726 5724 5722 5720 5718 5714 5711 5708 5706 5702